Date String (YYYY-MM-DD hh:mm:ss) UTC,Instrument flags,absolute air pressure of the measurement (hPa),sample flow rate (lpm),inlet stack bypass flow (lpm),air temperature of the measurement (°C),ambient temperature measured by the external sensor (°C),aerosol sample conditioner tube jacket temperature (°C),OPC LED temperature (°C),internal box temperature (°C),relative humidity of the measurement (%),span deviation,mass concentration of particles derived from Lorenz-Mie calculation of OPC scattering (μg/m³),mass concentration of particles derived from Lorenz-Mie calculation of OPC scattering (μg/m³),mass concentration of particles derived from Lorenz-Mie calculation of OPC scattering (μg/m³)
DateTimeUTC,F1_M11,P_M11,Q1_M11,Q2_M11,T1_M11,T2_M11,T3_M11,T4_M11,T5_M11,U1_M11,ZSPAN_M11,X0_M11,X2_M11,X1_M11
2023-06-13 09:00:00,SystemResetWarning,0829.7,5.00,000.00,029.9,028.2,000.0,038.5,031.4,24.8,0000.0,0004.92,0003.23,0002.83
2023-06-13 09:01:00,SystemResetWarning,0829.6,5.01,000.00,029.9,028.2,000.0,038.5,031.4,24.8,0000.0,0005.06,0003.28,0002.87
2023-06-13 09:02:00,SystemResetWarning,0829.7,5.00,000.00,029.9,028.2,000.0,038.5,031.4,24.8,0000.0,0005.14,0003.31,0002.91
2023-06-13 09:03:00,SystemResetWarning,0829.6,5.00,000.00,029.9,028.2,000.0,038.5,031.4,24.8,0000.0,0005.15,0003.33,0002.96
2023-06-13 09:04:00,SystemResetWarning,0829.7,4.99,000.00,029.9,028.2,000.0,038.5,031.4,24.8,0000.0,0005.20,0003.35,0002.99
2023-06-13 09:05:00,SystemResetWarning,0829.6,5.00,000.00,029.9,028.2,000.0,038.5,031.3,24.8,0000.0,0005.34,0003.40,0003.03
2023-06-13 09:06:00,SystemResetWarning,0829.7,5.00,000.00,029.9,028.2,000.0,038.5,031.3,24.8,0000.0,0005.50,0003.44,0003.06
2023-06-13 09:07:00,SystemResetWarning,0829.7,5.01,000.00,029.9,028.2,000.0,038.5,031.4,24.9,0000.0,0005.46,0003.43,0003.07
2023-06-13 09:08:00,SystemResetWarning,0829.7,5.00,000.00,029.9,028.2,000.0,038.5,031.3,24.8,0000.0,0005.41,0003.43,0003.07
2023-06-13 09:09:00,SystemResetWarning,0829.7,4.99,000.00,029.9,028.2,000.0,038.5,031.3,24.9,0000.0,0005.54,0003.47,0003.08
2023-06-13 09:10:00,SystemResetWarning,0829.7,5.00,000.00,029.9,028.2,000.0,038.5,031.3,24.9,0000.0,0005.82,0003.43,0003.06
2023-06-13 09:11:00,SystemResetWarning,0829.7,5.01,000.00,029.9,028.2,000.0,038.5,031.3,24.9,0000.0,0006.03,0003.43,0003.06
2023-06-13 09:12:00,SystemResetWarning,0829.7,5.01,000.00,029.9,028.2,000.0,038.5,031.3,24.9,0000.0,0006.05,0003.43,0003.06
2023-06-13 09:13:00,SystemResetWarning,0829.7,4.99,000.00,029.9,028.2,000.0,038.5,031.3,25.0,0000.0,0006.02,0003.41,0003.03
2023-06-13 09:14:00,SystemResetWarning,0829.7,4.99,000.00,029.9,028.2,000.0,038.5,031.3,25.1,0000.0,0006.04,0003.40,0003.01
2023-06-13 09:15:00,SystemResetWarning,0829.7,4.99,000.00,029.9,028.2,000.0,038.5,031.3,25.1,0000.0,0006.36,0003.43,0003.00
2023-06-13 09:16:00,SystemResetWarning,0829.6,5.02,000.00,029.9,028.2,000.0,038.5,031.3,25.1,0000.0,0006.38,0003.43,0002.98
2023-06-13 09:17:00,SystemResetWarning,0829.7,5.01,000.00,029.9,028.2,000.0,038.5,031.3,25.1,0000.0,0006.26,0003.41,0002.97
2023-06-13 09:18:00,SystemResetWarning,0829.7,4.99,000.00,029.9,028.2,000.0,038.5,031.3,25.1,0000.0,0006.54,0003.44,0002.97
2023-06-13 09:19:00,SystemResetWarning,0829.7,5.00,000.00,029.9,028.2,000.0,038.5,031.3,25.1,0000.0,0006.69,0003.45,0002.97
2023-06-13 09:20:00,SystemResetWarning,0829.7,5.01,000.00,029.9,028.2,000.0,038.5,031.3,25.2,0000.0,0006.56,0003.40,0002.96
2023-06-13 09:21:00,SystemResetWarning,0829.7,5.00,000.00,029.9,028.2,000.0,038.5,031.3,25.2,0000.0,0006.35,0003.43,0002.98
2023-06-13 09:22:00,SystemResetWarning,0829.7,5.00,000.00,029.9,028.2,000.0,038.5,031.3,25.2,0000.0,0007.30,0003.46,0003.00
2023-06-13 09:23:00,SystemResetWarning,0829.7,5.00,000.00,029.9,028.2,000.0,038.5,031.3,25.2,0000.0,0008.09,0003.46,0003.00
2023-06-13 09:24:00,SystemResetWarning,0829.6,4.99,000.00,029.9,028.2,000.0,038.5,031.3,25.2,0000.0,0008.13,0003.47,0003.01
2023-06-13 09:25:00,SystemResetWarning,0829.6,4.99,000.00,029.9,028.2,000.0,038.5,031.3,25.3,0000.0,0008.45,0003.50,0003.02
2023-06-13 09:26:00,SystemResetWarning,0829.6,5.00,000.00,029.9,028.2,000.0,038.5,031.3,25.3,0000.0,0008.69,0003.50,0003.04
2023-06-13 09:27:00,SystemResetWarning,0829.6,5.01,000.00,029.9,028.2,000.0,038.5,031.3,25.4,0000.0,0008.67,0003.52,0003.05
2023-06-13 09:28:00,SystemResetWarning,0829.6,5.01,000.00,029.9,028.2,000.0,038.4,031.3,25.4,0000.0,0008.73,0003.53,0003.06
2023-06-13 09:29:00,SystemResetWarning,0829.6,4.99,000.00,029.9,028.2,000.0,038.4,031.3,25.4,0000.0,0008.58,0003.47,0003.05
2023-06-13 09:30:00,SystemResetWarning,0829.5,4.99,000.00,029.9,028.2,000.0,038.4,031.3,25.5,0000.0,0008.60,0003.46,0003.05
2023-06-13 09:31:00,SystemResetWarning,0829.6,4.99,000.00,029.9,028.2,000.0,038.5,031.3,25.5,0000.0,0008.69,0003.48,0003.05
2023-06-13 09:32:00,SystemResetWarning,0829.5,5.00,000.00,029.9,028.2,000.0,038.5,031.3,25.5,0000.0,0008.66,0003.48,0003.05
2023-06-13 09:33:00,SystemResetWarning,0829.5,5.00,000.00,029.9,028.2,000.0,038.4,031.3,25.6,0000.0,0007.97,0003.47,0003.04
2023-06-13 09:34:00,SystemResetWarning,0829.6,5.00,000.00,029.9,028.2,000.0,038.4,031.3,25.6,0000.0,0007.17,0003.48,0003.06
2023-06-13 09:35:00,SystemResetWarning,0829.6,5.00,000.00,029.9,028.2,000.0,038.4,031.3,25.6,0000.0,0007.17,0003.48,0003.08
2023-06-13 09:36:00,SystemResetWarning,0829.6,5.00,000.00,029.9,028.2,000.0,038.4,031.3,25.6,0000.0,0006.81,0003.49,0003.08
2023-06-13 09:37:00,SystemResetWarning,0829.6,5.00,000.00,029.9,028.2,000.0,038.4,031.3,25.6,0000.0,0006.05,0003.46,0003.06
2023-06-13 09:38:00,SystemResetWarning,0829.6,5.00,000.00,029.9,028.2,000.0,038.4,031.3,25.6,0000.0,0006.06,0003.44,0003.06
2023-06-13 09:39:00,SystemResetWarning,0829.6,4.99,000.00,029.9,028.2,000.0,038.4,031.3,25.6,0000.0,0006.22,0003.44,0003.06
2023-06-13 09:40:00,SystemResetWarning,0829.6,4.99,000.00,029.9,028.2,000.0,038.4,031.3,25.6,0000.0,0006.44,0003.49,0003.06
2023-06-13 09:41:00,SystemResetWarning,0829.6,5.00,000.00,029.9,028.2,000.0,038.4,031.3,25.6,0000.0,0007.39,0003.53,0003.08
2023-06-13 09:42:00,SystemResetWarning,0829.5,5.00,000.00,029.9,028.2,000.0,038.4,031.3,25.6,0000.0,0007.68,0003.59,0003.09
2023-06-13 09:43:00,SystemResetWarning,0829.5,5.01,000.00,029.9,028.2,000.0,038.4,031.3,25.6,0000.0,0008.20,0003.64,0003.10
2023-06-13 09:44:00,SystemResetWarning,0829.5,5.01,000.00,029.9,028.2,000.0,038.4,031.3,25.6,0000.0,0008.25,0003.65,0003.09
2023-06-13 09:45:00,SystemResetWarning,0829.5,5.00,000.00,029.9,028.2,000.0,038.4,031.3,25.6,0000.0,0008.33,0003.64,0003.08
2023-06-13 09:46:00,SystemResetWarning,0829.5,4.99,000.00,029.9,028.2,000.0,038.4,031.3,25.6,0000.0,0008.49,0003.66,0003.08
2023-06-13 09:47:00,SystemResetWarning,0829.5,5.00,000.00,029.9,028.2,000.0,038.4,031.3,25.5,0000.0,0008.49,0003.67,0003.08
2023-06-13 09:48:00,SystemResetWarning,0829.5,5.00,000.00,029.9,028.2,000.0,038.4,031.3,25.5,0000.0,0008.57,0003.70,0003.07
2023-06-13 09:49:00,SystemResetWarning,0829.5,5.00,000.00,029.9,028.2,000.0,038.4,031.3,25.5,0000.0,0008.53,0003.71,0003.07
2023-06-13 09:50:00,SystemResetWarning,0829.5,5.00,000.00,029.9,028.2,000.0,038.4,031.3,25.5,0000.0,0008.43,0003.68,0003.05
2023-06-13 09:51:00,SystemResetWarning,0829.5,5.01,000.00,029.9,028.2,000.0,038.4,031.3,25.4,0000.0,0008.23,0003.64,0003.04
2023-06-13 09:52:00,SystemResetWarning,0829.5,4.99,000.00,029.9,028.1,000.0,038.4,031.3,25.4,0000.0,0007.67,0003.63,0003.01
2023-06-13 09:53:00,SystemResetWarning,0829.5,5.00,000.00,029.9,028.1,000.0,038.4,031.3,25.4,0000.0,0007.13,0003.55,0002.99
2023-06-13 09:54:00,SystemResetWarning,0829.5,5.00,000.00,029.9,028.1,000.0,038.4,031.3,25.4,0000.0,0006.30,0003.50,0002.98
2023-06-13 09:55:00,SystemResetWarning,0829.5,5.00,000.00,029.9,028.1,000.0,038.4,031.3,25.4,0000.0,0006.14,0003.49,0002.98
2023-06-13 09:56:00,SystemResetWarning,0829.6,5.01,000.00,029.9,028.1,000.0,038.4,031.3,25.4,0000.0,0006.09,0003.50,0002.97
2023-06-13 09:57:00,SystemResetWarning,0829.5,5.00,000.00,029.9,028.1,000.0,038.4,031.3,25.4,0000.0,0006.21,0003.53,0002.97
2023-06-13 09:58:00,SystemResetWarning,0829.6,5.00,000.00,029.9,028.1,000.0,038.4,031.3,25.4,0000.0,0006.29,0003.53,0002.96
2023-06-13 09:59:00,SystemResetWarning,0829.6,5.00,000.00,029.9,028.1,000.0,038.4,031.3,25.4,0000.0,0006.20,0003.51,0002.98
